Погода в Брюсселе

Бельгия     50°51′15″N   4°21′07″E
темп.,
°C
ветер,
м/с
пор.,
м/с
влажн.,
%
обл.,
%
осадки,
мм/ч
давл.,
гПа
погр.,
м
22 апреля, чт
чт2223:00+7ссв511657 0.0 1022487
02:00+4св510706 0.0 1023408
05:00+3св4107985 0.0 1024342
08:00+3св497263 0.0 1026437
11:00+8св565482 0.0 1027811
14:00+11св45445 0.0 10261237
17:00+13св454266 0.0 10261513
20:00+10с365837 0.0 1026603
23 апреля, пт
пт2323:00+6св387039 0.0 1028250
02:00+4всв37796 0.0 1029205
05:00+2всв35861 0.0 1029135
08:00+3всв36805 0.0 1030217
11:00+9всв46505 0.0 1030735
14:00+13св45375 0.0 10291134
17:00+14св45355 0.0 10271340
20:00+11всв37515 0.0 1027430
24 апреля, сб
сб2423:00+7всв37660 0.0 1028156
02:00+5всв378146 0.0 1027178
05:00+4всв4986100 0.0 1027224
08:00+5всв4980100 0.0 1027258
11:00+10всв5660100 0.0 1027645
14:00+13св5642100 0.0 10261106
17:00+14св574593 0.0 10251291
20:00+11св486145 0.0 1025623
25 апреля, вс
вс2523:00+7св51076100 0.0 1027365
02:00+6св5117358 0.0 1026417
05:00+3св410790 0.0 1027332
08:00+3св59743 0.0 1027370
11:00+8св57460 0.0 1027772
14:00+12св56350 0.0 10251145
17:00+14св56380 0.0 10241425
20:00+11св48534 0.0 1022623
26 апреля, пн
пн2623:00+7св511720 0.0 1023378
02:00+5св4107987 0.0 1023344
05:00+3св410850 0.0 1021280
08:00+3св49790 0.0 1021327
11:00+9св57515 0.0 1020767
14:00+13св5636100 0.0 10171182
17:00+13св553698 0.0 10151383
20:00+10св3753100 0.0 1013579